This is the latest recevied weather packets stored in our database for station/object KJ6HT. If no packets are shown the sender has not sent any weather packets the latest 10 day(s).
| Time | Temp. | Humidity | Pressure | Rain* | Wind** | Luminosity | Snow |
|---|---|---|---|---|---|---|---|
| 1788012932 | 26.11° C | 70% | 1010.2 hPa | 0 mm | - | - | - |
| 1788012092 | 25° C | 73% | 1010.1 hPa | 0 mm | - | - | - |
| 1788011156 | 23.89° C | 78% | 1010.1 hPa | 0 mm | - | - | - |
| 1788010215 | 23.33° C | 77% | 1010 hPa | 0 mm | - | - | - |
| 1788009364 | 23.89° C | 76% | 1009.9 hPa | 0 mm | - | - | - |
| 1788008418 | 24.44° C | 71% | 1009.7 hPa | 0 mm | - | - | - |
| 1788007559 | 23.89° C | 71% | 1009.7 hPa | 0 mm | - | - | - |
| 1788006620 | 24.44° C | 70% | 1009.7 hPa | 0 mm | - | - | - |
| 1788005764 | 25° C | 68% | 1009.6 hPa | 0 mm | - | - | - |
| 1788004814 | 26.11° C | 65% | 1009.5 hPa | 0 mm | - | - | - |
| 1788003967 | 25° C | 67% | 1009.5 hPa | 0 mm | - | - | - |
| 1788003010 | 25° C | 68% | 1009.5 hPa | 0 mm | - | - | - |
| 1788002190 | 25° C | 66% | 1009.4 hPa | 0 mm | - | - | - |
| 1788001207 | 26.11° C | 63% | 1009.3 hPa | 0 mm | - | - | - |
| 1788000361 | 25° C | 66% | 1009.3 hPa | 0 mm | - | - | - |
| 1787999423 | 25.56° C | 63% | 1009.2 hPa | 0 mm | - | - | - |
| 1787998572 | 26.67° C | 59% | 1009 hPa | 0 mm | - | - | - |
| 1787997650 | 25.56° C | 61% | 1009 hPa | 0 mm | - | - | - |
| 1787996791 | 26.11° C | 59% | 1008.9 hPa | 0 mm | - | - | - |
| 1787995836 | 27.78° C | 56% | 1008.9 hPa | 0 mm | - | - | - |
| 1787994984 | 26.67° C | 58% | 1008.9 hPa | 0 mm | - | - | - |
| 1787994011 | 27.22° C | 58% | 1009.2 hPa | 0 mm | - | - | - |
| 1787993162 | 27.22° C | 56% | 1009.2 hPa | 0 mm | - | - | - |
| 1787992215 | 27.22° C | 56% | 1009.3 hPa | 0 mm | - | - | - |
| 1787991366 | 27.22° C | 55% | 1009.3 hPa | 0 mm | - | - | - |
* Rain latest hour (hover to see other rain measurements)
** Current wind speed in m/s (hover to see current wind gust speed)